Theta_e
352 353 356 357 357 357 357 357 355 354 354 353 354 354 353 352 352 353 353 353 353 353 352 353 352 352 352 351 350 349 348 347 345 344 344 344 344 343 343 343 343 343 345 345 345 347 347 347 347 348 349 349 351 349 347 348 348 348 348 347 345 344 345 345 345 346 346 347 346 347 346 346 346 345 346 347 346 348 347 347 346 343 343 343 345
351 355 356 356 356 357 357 355 354 354 354 354 353 353 352 352 352 352 353 353 353 352 352 352 352 352 351 350 349 348 347 347 346 346 346 345 344 344 344 344 345 345 345 345 346 346 348 347 347 346 346 348 349 346 347 348 348 347 346 345 345 346 346 345 346 346 346 345 346 346 346 346 346 346 347 348 348 347 346 346 346 342 341 345 345
354 355 356 356 357 357 356 355 353 353 353 354 354 353 353 353 353 352 352 352 352 352 352 352 352 352 351 349 349 348 348 347 346 345 345 345 345 344 344 344 345 345 345 345 345 345 346 347 346 347 347 345 346 347 347 348 347 347 346 346 346 345 343 344 345 346 346 346 346 345 345 345 345 345 347 348 347 347 346 345 344 344 341 345 344
353 355 355 357 357 356 356 354 353 353 354 354 353 353 353 352 352 352 351 351 351 352 352 351 351 350 350 349 349 348 347 346 346 346 346 346 345 345 345 345 344 344 345 345 345 345 347 347 346 347 347 348 348 347 347 346 346 344 345 346 345 346 345 344 344 345 345 345 345 343 341 338 342 346 346 346 347 346 345 345 345 344 344 344 344
353 355 355 355 355 355 355 355 354 354 354 353 353 352 351 351 352 352 351 351 351 351 351 351 351 350 350 349 349 348 348 347 347 346 346 346 345 345 345 344 344 344 345 344 345 345 345 347 346 346 346 347 347 346 346 346 346 346 345 345 345 344 344 343 343 344 345 345 345 342 339 340 340 345 346 345 345 344 344 344 344 343 343 343 342
353 355 355 354 353 355 355 355 354 353 355 353 352 352 352 353 352 352 352 351 351 351 351 350 350 349 349 349 348 348 348 347 346 346 346 346 347 346 345 345 343 342 344 345 344 344 346 346 346 346 346 346 346 346 347 347 345 344 344 344 344 344 343 343 343 344 344 345 344 339 339 339 340 342 345 345 345 343 343 343 342 341 342 342 342
354 355 354 353 353 354 355 355 354 353 353 353 353 353 354 353 352 350 351 351 352 351 350 350 350 350 349 349 349 348 348 347 346 346 346 347 347 346 345 345 345 345 345 345 345 345 346 346 345 347 346 346 346 346 345 344 344 343 344 344 344 345 344 344 344 344 343 340 336 336 336 338 339 341 345 345 344 343 342 342 342 342 341 340 340
354 354 354 353 352 354 355 355 354 354 354 354 354 354 354 354 352 350 351 352 351 350 350 350 350 350 349 349 348 348 348 347 346 346 346 348 348 347 346 346 347 347 348 347 345 345 345 346 346 345 346 346 346 345 344 344 343 343 343 344 344 345 345 344 343 342 341 335 334 335 335 335 334 335 341 343 342 341 340 341 339 339 339 339 337
352 353 354 353 352 355 355 354 355 355 354 354 354 354 354 354 353 353 352 351 351 350 350 349 349 349 349 349 348 348 348 346 346 346 346 348 348 347 348 348 349 348 347 346 346 346 346 345 346 346 346 346 345 345 344 342 342 342 344 345 345 346 345 342 342 341 337 335 335 335 336 336 334 332 336 337 337 338 337 337 337 336 338 339 339
352 353 353 352 352 355 354 354 355 355 354 354 354 354 354 353 353 352 351 351 350 350 349 349 349 349 349 348 348 348 347 347 347 347 346 348 348 348 348 348 348 348 348 346 346 345 344 345 345 347 346 346 345 344 343 342 342 344 344 345 347 346 344 343 342 341 336 336 337 336 338 340 334 333 337 340 340 339 337 337 338 341 340 341 341
352 353 352 352 353 354 353 354 355 354 354 354 354 354 354 354 353 353 352 352 351 350 349 349 349 349 348 348 348 350 348 347 347 347 347 347 347 348 348 348 348 348 347 346 346 346 346 346 345 346 347 346 343 342 343 343 343 344 342 343 344 344 342 340 337 331 332 332 332 334 338 340 333 334 338 337 337 337 338 337 338 341 341 341 341
352 352 353 353 355 353 354 354 354 354 354 354 353 354 354 354 353 351 353 351 351 350 350 350 349 349 349 348 348 350 349 348 347 347 347 347 348 349 350 350 348 347 346 346 347 347 346 345 346 346 345 344 343 343 344 344 343 344 341 341 341 340 339 337 331 331 331 332 333 332 332 334 332 331 335 338 337 335 335 336 337 340 340 341 340
351 352 353 353 352 353 354 354 354 354 354 353 354 353 354 354 353 352 352 351 351 351 350 350 350 350 349 349 348 349 348 348 347 347 348 350 350 351 350 349 347 347 346 347 347 347 347 347 347 346 344 343 344 344 344 344 345 343 341 340 340 340 339 337 330 330 330 330 330 329 328 328 327 338 337 337 336 338 338 339 341 340 340 340 340
350 352 352 352 352 355 353 353 353 354 354 353 353 353 353 353 352 352 352 352 351 351 350 350 350 350 350 349 349 349 349 348 348 348 350 350 350 350 349 349 347 347 347 347 347 347 347 347 346 344 344 346 346 344 345 345 345 343 341 340 340 339 339 337 334 330 331 330 332 330 330 332 333 338 337 338 337 337 336 340 340 340 339 339 339
350 351 352 352 352 352 355 353 353 353 353 352 352 353 353 352 352 352 352 352 351 351 350 350 350 350 350 349 350 350 349 348 348 349 350 350 350 349 348 347 347 347 347 347 347 346 346 346 344 345 346 346 345 345 345 346 346 342 340 340 339 338 336 329 329 328 329 332 332 332 331 332 338 337 337 338 338 338 338 338 338 338 338 338 337
351 351 352 351 351 352 352 354 353 353 352 353 352 353 352 352 351 351 351 351 351 350 350 350 350 350 350 350 350 349 349 348 349 350 350 350 349 349 348 347 347 348 347 347 347 346 346 345 345 345 345 346 345 344 345 346 345 342 340 339 338 337 336 332 326 326 326 328 330 331 330 333 339 337 337 337 336 336 336 337 337 337 337 337 336
350 351 350 350 350 350 351 351 352 354 353 353 352 352 352 351 351 351 351 351 350 350 350 350 351 350 350 350 349 349 349 349 350 350 349 349 349 348 348 347 347 348 347 347 346 346 346 345 345 346 345 346 345 345 345 345 344 342 340 339 338 336 335 333 327 327 328 331 330 328 329 331 335 336 336 335 336 335 335 335 335 335 336 335 335
349 349 348 349 349 349 349 350 351 350 350 352 353 352 351 351 350 350 350 350 350 350 350 350 350 350 350 350 350 351 351 350 349 349 349 349 348 348 347 346 346 347 347 347 346 346 346 346 345 346 346 346 344 345 343 341 341 340 339 338 337 337 336 335 328 329 330 333 328 332 331 336 337 335 336 336 335 335 336 336 336 336 335 335 335
347 348 348 349 349 349 348 348 349 349 349 348 349 351 351 351 350 351 350 350 350 350 350 350 350 350 351 351 351 352 351 350 349 349 349 348 348 347 347 346 347 347 347 347 347 346 346 346 346 346 346 345 345 345 345 343 341 340 339 339 338 337 337 333 327 327 328 326 327 327 329 337 337 336 338 338 337 337 337 337 336 335 335 334 333
346 346 347 348 348 348 347 347 347 347 348 347 348 349 351 351 351 351 350 350 350 350 349 349 350 350 351 350 350 350 350 349 350 349 349 348 347 346 347 346 346 347 347 347 347 346 346 346 346 346 345 346 345 345 345 343 341 341 340 339 338 336 328 326 325 325 325 328 328 327 337 338 337 336 336 336 336 336 335 334 334 334 334 334 333
344 345 345 346 347 346 346 345 346 346 346 346 346 347 349 351 350 351 351 351 350 350 349 350 348 348 349 349 348 345 345 346 347 346 349 346 347 347 347 346 346 347 347 347 346 346 346 346 346 345 346 345 345 344 345 343 341 340 339 338 336 327 326 325 326 330 327 329 331 330 336 335 335 335 335 334 334 335 335 332 331 332 332 332 332
341 342 344 345 345 345 345 345 345 345 346 346 346 346 348 349 347 348 348 348 349 349 347 347 348 345 349 346 344 346 343 343 344 348 344 346 346 347 347 346 346 346 346 346 346 346 346 346 346 346 345 344 342 334 339 343 341 339 337 335 327 326 326 326 325 328 327 327 329 332 335 334 335 335 336 335 333 334 333 333 333 333 332 331 331
338 340 341 343 344 344 345 343 344 345 344 345 345 346 347 346 346 346 347 348 347 347 344 345 342 343 343 343 344 342 341 342 344 345 344 346 345 346 346 346 346 345 346 346 346 346 346 346 346 345 344 339 333 332 332 336 336 339 336 329 326 326 326 326 326 327 325 327 327 335 335 336 336 335 334 333 334 334 333 333 333 332 332 332 331
337 339 340 342 343 342 342 342 344 344 344 343 343 344 345 344 345 345 345 344 344 344 342 341 341 341 342 342 341 341 340 341 348 348 347 343 343 346 346 345 345 345 345 343 346 346 346 346 345 343 337 335 332 331 331 332 330 328 326 326 326 326 326 326 326 325 326 331 328 336 334 334 334 333 334 334 334 333 331 332 331 331 331 331 331
336 337 338 340 340 340 340 340 343 344 343 343 342 343 344 345 345 345 345 344 343 342 341 340 340 340 340 341 340 339 339 340 341 342 339 339 337 338 340 338 335 335 340 329 332 333 333 330 331 331 329 333 333 331 329 328 328 326 325 326 326 326 326 328 328 327 326 326 330 334 334 333 332 333 334 333 332 332 332 332 330 330 330 330 331
332 334 335 340 340 340 340 340 342 343 342 341 343 345 345 344 344 345 345 344 343 342 342 339 337 339 338 338 339 337 337 337 338 338 337 336 335 335 334 334 332 332 333 327 327 326 326 326 326 327 326 329 331 332 330 329 327 327 325 325 326 326 326 325 327 328 328 329 332 334 335 335 335 334 333 333 332 332 332 332 331 331 331 331 330
330 331 333 337 339 340 340 339 340 340 340 341 343 344 343 344 344 344 343 342 342 342 342 341 338 338 338 339 337 335 334 335 336 336 335 335 335 333 333 333 332 330 330 329 327 326 325 325 324 324 324 327 331 332 330 329 328 327 326 326 326 326 326 327 326 326 326 328 333 335 335 334 333 333 333 333 333 333 332 331 331 331 330 330 330
330 329 332 335 337 337 338 337 337 337 338 341 342 342 342 343 344 345 342 343 342 341 341 340 338 337 338 338 338 334 334 334 335 335 334 333 333 332 332 331 332 331 331 330 326 326 324 323 323 323 325 326 333 331 329 329 328 328 327 327 327 326 326 326 327 327 327 328 329 334 334 333 333 333 333 332 332 331 332 332 332 331 330 330 330
329 329 329 333 334 336 335 335 335 336 337 340 340 340 341 342 343 341 340 343 340 340 340 339 338 338 338 338 337 334 333 334 334 334 333 333 332 331 331 330 328 330 330 327 327 326 324 323 323 323 322 326 332 330 329 328 328 328 328 328 327 326 326 326 326 327 328 327 329 332 334 335 337 334 332 332 332 333 332 332 332 331 331 330 329
330 330 329 331 333 335 334 333 333 334 336 338 337 339 340 341 342 340 341 341 339 339 339 338 338 338 337 337 337 335 334 334 333 333 333 332 332 329 329 328 327 327 329 329 326 326 325 323 323 324 325 328 331 330 328 327 328 327 328 328 328 328 327 327 327 327 327 327 328 332 335 336 335 335 334 334 334 333 333 332 331 332 331 331 330
330 330 329 331 334 334 333 333 334 337 335 334 335 337 339 340 341 340 340 339 339 339 339 338 336 336 336 336 336 336 334 333 333 333 332 331 331 330 329 327 326 326 328 329 326 327 324 324 325 324 325 331 329 328 327 327 326 327 327 328 328 328 328 328 328 329 329 328 328 328 332 334 335 336 337 337 333 331 331 331 331 331 331 331 331
329 330 330 332 333 333 334 333 333 334 334 333 334 334 337 340 340 340 339 338 339 338 338 337 336 335 336 336 336 336 336 333 333 332 332 331 330 329 328 328 327 326 328 327 327 326 325 324 326 328 328 331 327 327 326 327 325 327 327 328 328 328 328 329 329 329 329 328 327 327 327 331 334 335 335 335 335 332 331 332 332 331 331 332 331
331 331 331 333 333 333 334 333 334 333 332 332 333 333 334 338 340 339 338 338 338 338 336 335 334 335 336 336 336 336 335 334 333 333 334 331 331 330 329 330 329 329 328 328 327 326 328 328 327 329 329 327 327 326 328 326 326 326 327 328 328 328 328 329 328 329 328 327 326 325 327 328 330 336 335 332 335 333 333 333 333 333 333 333 332
330 331 332 331 334 335 335 334 334 332 332 332 332 332 333 336 339 339 338 337 337 337 336 334 334 335 336 336 336 336 335 334 333 332 332 330 331 332 331 331 329 329 328 327 327 327 328 327 327 329 331 327 326 325 325 326 328 328 328 328 327 327 328 328 327 327 327 327 325 326 325 325 325 326 328 333 336 337 336 334 333 333 333 333 333
330 331 332 332 335 335 337 336 336 332 333 331 332 332 332 336 338 339 338 337 336 336 335 334 334 335 336 336 336 336 335 334 334 333 331 329 330 331 331 332 331 329 329 328 329 329 328 328 329 328 326 325 325 324 326 326 327 327 327 328 328 328 326 326 327 328 328 326 327 325 325 325 324 328 329 327 339 339 338 337 334 333 333 333 333
329 331 332 334 334 336 337 336 335 332 332 332 331 332 333 335 336 340 338 337 335 334 334 334 334 335 337 337 337 336 335 334 334 332 331 329 329 331 332 331 332 331 329 329 331 329 328 329 329 328 326 325 325 323 324 325 326 326 328 328 328 328 326 326 327 327 326 327 326 325 324 324 325 327 334 327 328 335 338 337 337 337 334 334 334
331 330 332 333 334 336 336 335 334 333 331 331 331 332 333 334 336 338 338 337 335 334 334 334 334 335 337 338 337 336 335 334 333 332 331 330 329 331 331 332 332 331 331 330 330 329 329 329 326 327 328 325 325 324 324 324 326 327 328 328 327 327 327 327 327 325 326 326 325 325 325 325 329 336 324 326 329 331 336 337 337 336 335 336 335
332 331 332 334 334 335 336 336 335 334 332 332 332 332 333 334 335 335 337 336 335 335 335 335 335 336 337 337 337 337 335 333 333 331 331 331 330 330 331 332 332 331 331 330 329 329 329 329 326 325 327 326 325 325 325 326 327 327 327 326 327 328 328 328 329 329 326 326 326 326 325 326 327 325 325 327 329 329 330 333 336 336 335 334 334
331 330 332 334 335 335 336 336 335 333 332 332 332 332 332 333 334 335 337 336 336 335 334 334 335 336 337 337 337 336 335 333 332 332 330 331 330 329 331 332 332 331 331 329 328 329 328 328 328 326 327 325 325 325 327 327 327 326 326 326 328 328 329 329 328 326 326 326 328 329 326 324 325 324 325 327 327 328 326 324 324 324 328 335 334
331 332 333 334 334 335 336 336 334 333 331 331 332 332 333 333 333 334 335 335 332 333 333 334 334 335 336 337 336 334 334 333 331 331 331 332 330 330 330 331 331 331 330 328 327 328 328 327 327 327 326 327 326 326 329 328 327 326 326 327 328 328 328 328 328 327 327 327 328 326 324 325 324 323 323 325 325 326 326 327 328 324 326 331 335
330 332 332 333 334 334 335 333 333 331 330 330 331 331 331 332 333 332 331 332 332 332 333 334 334 334 335 335 334 334 333 332 332 331 330 334 331 329 329 330 331 331 330 329 328 328 328 328 327 327 327 325 326 327 328 328 325 324 326 326 326 328 329 328 327 328 328 328 325 323 324 326 323 324 323 323 325 327 328 326 323 322 324 325 327
330 331 332 333 334 335 335 333 332 330 329 329 331 332 332 333 332 331 329 329 329 329 331 333 333 333 334 334 332 331 331 332 332 331 331 331 329 329 329 331 332 330 329 329 328 331 328 327 327 326 327 326 325 327 327 325 321 321 320 320 323 325 327 327 327 328 329 328 325 323 323 324 324 324 325 325 324 326 327 326 321 323 324 323 324
330 331 333 333 334 335 334 333 331 329 326 328 330 330 329 332 332 330 329 328 331 330 333 333 335 333 332 331 332 332 331 331 332 332 330 330 329 329 330 331 331 330 328 327 328 327 327 327 327 327 326 324 325 327 325 320 320 323 323 320 317 316 321 324 326 326 326 327 327 326 324 324 325 324 322 322 323 324 326 326 322 322 323 323 322
330 331 332 333 334 335 333 332 331 329 325 327 330 328 330 331 331 331 330 328 328 331 331 331 331 331 330 331 332 332 331 331 331 332 331 330 329 328 329 329 329 330 329 328 328 327 326 327 326 326 326 324 325 325 324 322 323 321 314 313 316 317 313 317 320 323 326 326 327 325 327 325 323 323 321 323 325 326 326 322 322 322 322 323 325
330 331 332 333 334 334 334 333 331 329 326 328 329 329 330 329 329 329 329 327 328 328 329 328 330 330 331 330 330 333 332 331 331 332 332 330 329 329 329 329 330 330 330 329 328 328 327 327 327 326 325 325 323 323 323 321 323 321 318 315 313 312 313 317 320 320 324 324 325 325 327 325 324 322 321 323 324 326 327 323 321 322 323 326 326
330 331 333 334 334 335 334 332 331 329 327 328 329 329 328 328 326 325 324 323 323 325 326 327 328 328 328 330 332 333 332 332 332 333 332 331 329 329 329 330 330 330 330 330 329 328 327 326 327 327 326 326 325 322 322 322 323 323 319 316 318 313 312 318 318 312 321 324 324 327 327 326 325 323 320 323 325 325 326 324 321 324 325 325 324
330 332 333 333 334 335 333 332 331 329 329 328 329 329 326 327 327 326 326 324 324 325 328 329 329 330 330 330 331 332 333 332 332 332 332 331 330 330 330 330 331 330 330 329 328 327 327 327 327 327 327 326 324 321 322 322 319 322 321 321 319 316 320 318 314 316 314 319 323 323 324 325 325 324 322 322 323 323 323 324 324 323 322 322 321
330 331 328 327 328 330 331 330 330 330 329 328 328 329 327 326 326 325 326 325 325 326 328 329 330 331 330 331 330 331 332 333 332 331 331 331 330 330 331 331 331 330 330 329 329 328 328 327 328 328 327 327 325 322 321 321 320 320 321 318 317 318 319 314 318 316 314 313 316 322 323 322 320 320 322 321 321 322 323 323 323 321 321 320 317
325 325 325 326 328 329 329 329 329 330 330 328 327 328 328 327 327 326 325 326 326 325 329 330 329 331 329 329 330 331 331 332 332 331 331 330 331 330 331 330 330 330 331 329 329 329 328 327 327 326 325 326 326 324 323 322 321 320 318 313 316 316 314 314 317 312 313 314 316 317 317 320 319 318 318 318 321 322 323 323 322 320 319 317 315
323 325 325 327 328 328 329 329 329 329 330 329 328 327 327 327 326 326 325 325 325 325 328 328 328 328 328 328 329 330 330 329 328 329 329 330 330 330 330 331 331 331 331 329 328 328 327 328 327 327 326 326 325 325 324 323 323 321 322 317 314 313 313 313 313 312 315 316 315 316 318 317 316 318 317 317 320 321 322 322 320 319 317 315 314
321 326 325 325 325 327 329 329 329 329 329 329 327 326 327 327 327 326 326 325 324 324 325 326 327 327 327 327 327 327 328 328 327 328 329 330 330 330 331 331 331 331 331 329 328 328 327 327 327 327 326 326 325 324 323 322 323 321 320 319 318 319 316 312 314 313 312 311 314 317 318 320 317 315 316 316 319 321 322 320 319 317 316 314 313
Wind_Speed
9 11 8 11 13 14 15 15 15 16 16 15 15 16 15 16 17 18 18 19 20 21 22 22 22 23 22 23 22 22 22 22 21 20 19 19 19 19 19 18 17 17 16 17 17 17 16 15 15 17 16 16 17 18 18 19 18 18 18 18 17 17 16 16 17 17 16 17 16 15 15 15 16 15 16 17 17 17 16 16 14 10 7 12 16
12 10 8 9 13 14 15 16 17 16 16 16 16 15 16 16 16 16 17 18 20 21 21 22 21 21 22 21 21 22 22 22 22 22 21 20 19 19 18 18 17 17 17 17 16 16 16 15 16 18 18 16 19 17 19 20 20 18 18 16 17 19 18 15 17 16 16 16 16 16 15 15 15 16 17 18 17 17 16 16 16 8 7 15 17
10 10 8 10 14 14 15 16 17 16 16 16 17 16 16 16 16 16 16 17 19 20 20 21 20 21 21 21 21 21 22 23 23 21 20 20 20 19 19 19 18 17 17 17 16 16 17 15 16 17 19 19 18 19 21 19 20 18 18 17 17 18 15 12 16 17 16 17 16 16 15 15 15 16 16 17 17 17 16 16 15 15 10 17 15
13 9 8 11 15 14 14 16 16 17 16 16 16 16 15 16 17 17 17 16 18 18 20 19 19 19 19 19 20 21 23 22 21 22 22 21 21 20 19 18 18 18 17 16 16 15 17 16 15 16 18 17 19 18 18 19 19 16 16 16 16 16 15 15 17 17 15 16 14 12 6 5 8 15 16 16 18 18 17 17 16 17 17 16 17
12 11 9 8 10 12 14 16 15 17 17 17 16 17 16 16 16 16 17 16 17 18 18 19 19 19 19 19 20 21 21 21 21 21 21 20 20 20 19 18 19 18 17 17 16 15 14 15 14 15 16 17 17 17 17 16 16 16 15 15 15 15 15 14 16 14 15 15 13 9 4 4 4 14 16 17 17 17 17 17 16 16 16 17 16
10 10 9 8 8 11 14 14 16 17 17 17 17 16 16 16 16 16 16 17 16 17 18 18 19 18 19 19 20 20 20 20 20 20 19 19 18 19 20 19 17 16 17 16 15 15 15 15 14 15 15 16 16 16 15 15 14 13 13 14 14 15 15 15 15 14 16 15 13 6 6 5 5 8 17 17 17 16 16 16 15 15 15 16 15
12 9 9 9 8 10 14 14 16 17 17 17 17 16 15 15 15 16 16 16 16 18 17 18 18 18 18 18 19 19 19 19 19 19 18 18 18 17 19 19 18 17 16 15 15 15 14 14 14 13 14 14 14 14 13 13 13 12 11 11 12 12 14 16 16 15 14 8 5 5 6 6 6 6 16 15 15 15 15 15 15 15 15 14 15
9 8 9 8 7 12 15 15 16 17 17 17 17 16 15 15 15 17 16 16 16 16 17 17 18 18 18 17 18 19 19 19 18 18 17 15 17 17 17 18 18 17 17 16 15 15 14 13 13 14 13 13 13 12 12 12 11 10 9 8 7 6 10 15 15 14 13 7 5 5 5 5 5 5 13 14 15 14 14 15 14 14 14 14 13
10 10 9 8 8 17 16 15 15 17 17 17 17 16 16 15 16 15 16 17 16 16 16 16 18 17 17 17 17 18 18 18 18 17 17 16 17 18 17 17 16 15 15 15 15 14 14 13 13 13 12 12 12 12 11 11 10 10 9 7 7 10 12 14 14 13 8 6 6 5 6 5 4 4 12 13 13 14 14 11 10 14 15 13 13
10 8 8 7 8 15 14 15 16 17 17 17 17 16 16 15 15 15 16 17 16 16 16 16 18 17 17 17 17 18 18 17 17 16 17 18 18 18 16 15 15 14 13 13 13 13 13 13 12 13 13 13 12 12 11 10 11 11 11 12 14 15 15 14 14 10 6 6 6 5 5 6 3 4 11 14 15 15 14 12 11 11 11 14 15
9 8 8 8 10 14 14 15 15 17 17 17 16 16 16 16 15 15 15 16 16 16 16 16 17 17 16 17 18 18 17 17 17 16 17 17 17 16 16 16 15 13 12 12 12 12 12 12 13 13 13 12 12 11 11 12 11 12 14 14 15 16 14 14 10 5 6 6 5 5 9 12 5 5 14 15 16 16 15 13 14 15 14 15 16
10 9 8 8 14 14 14 15 15 16 17 16 17 17 16 16 15 15 16 15 16 16 15 16 15 16 15 16 18 18 18 17 16 16 17 16 17 17 17 16 14 13 11 11 11 12 12 13 13 14 13 12 12 12 12 11 12 13 15 15 15 15 14 13 7 6 5 6 6 5 5 6 4 8 16 16 15 14 14 14 13 15 14 15 15
11 10 9 8 9 13 14 15 15 16 17 17 16 16 16 15 15 15 15 13 14 15 16 16 15 14 14 15 17 18 17 16 16 16 16 16 17 17 16 15 13 12 11 11 12 12 13 13 14 14 13 12 12 12 11 12 12 12 14 14 15 15 14 13 6 6 5 5 5 5 5 5 4 14 15 15 15 15 14 14 14 15 15 15 15
12 11 9 9 8 15 14 14 15 15 16 16 16 15 15 15 15 15 14 13 13 14 14 14 14 14 13 13 14 16 16 15 14 17 17 17 17 16 15 14 12 12 11 11 11 12 12 13 14 13 12 12 11 10 12 12 12 12 14 14 14 14 15 10 7 5 5 4 4 5 4 3 5 13 15 15 14 14 14 15 15 15 15 15 15
10 10 9 8 8 9 16 14 15 15 15 15 14 14 14 14 14 13 13 14 14 13 14 15 14 13 14 13 13 14 15 15 16 16 17 16 16 16 15 13 12 12 11 10 11 11 12 13 12 12 12 11 9 10 12 12 12 14 14 13 13 13 12 6 5 5 5 5 4 5 5 4 11 12 14 15 15 14 13 13 14 15 15 14 14
8 10 9 8 8 8 9 14 15 15 14 14 14 14 14 13 13 13 13 13 13 14 14 13 13 13 13 12 12 13 15 15 16 16 16 16 15 14 14 13 12 12 12 11 10 11 12 12 12 12 12 10 10 12 11 11 16 15 12 11 12 12 12 7 5 5 5 5 5 5 5 6 13 12 13 13 14 14 13 13 13 14 14 14 14
9 11 10 9 8 7 7 8 11 16 14 14 13 13 13 13 13 13 12 13 14 14 13 13 13 13 13 13 12 12 12 14 16 16 16 15 15 13 13 11 11 12 12 11 11 10 11 11 12 12 11 11 12 12 13 14 16 14 12 12 12 12 12 9 6 4 5 5 5 5 5 4 11 12 14 13 13 13 13 12 12 13 13 12 12
9 9 10 9 8 7 7 7 9 9 9 13 14 14 14 14 13 12 13 14 14 14 13 12 12 13 13 13 13 12 14 14 15 16 16 15 14 13 12 11 10 11 12 11 11 10 10 10 12 11 11 12 12 12 13 14 14 14 13 13 13 13 12 9 5 4 5 5 5 3 4 8 12 12 13 13 12 13 13 12 12 12 12 12 12
9 10 10 11 10 8 9 9 10 11 11 9 8 12 17 14 13 12 13 13 12 13 13 12 13 13 13 12 14 15 15 15 14 15 15 15 13 12 11 10 9 10 11 11 11 10 9 10 11 12 12 11 11 11 11 12 13 14 14 13 13 12 12 6 4 4 4 4 4 4 4 8 9 13 13 13 13 12 12 12 12 12 12 12 12
9 10 11 12 13 13 13 13 12 12 10 9 10 10 14 15 13 13 13 12 12 12 12 12 12 13 13 14 15 13 14 12 16 12 15 15 13 9 11 9 9 9 10 11 10 9 9 10 11 11 11 11 11 10 11 12 13 14 14 13 13 11 5 4 4 4 3 3 2 3 8 11 12 12 12 12 12 12 12 12 11 11 12 11 11
6 9 10 11 13 14 12 6 6 7 7 6 5 6 9 15 12 14 13 13 12 13 11 11 11 12 12 11 10 7 6 7 9 7 13 8 10 12 10 9 8 8 9 10 10 9 9 9 10 10 10 10 9 9 9 13 14 14 13 13 12 6 5 4 4 3 3 3 3 4 11 11 12 12 12 12 12 12 11 11 11 11 11 11 10
10 9 9 10 9 7 8 6 5 6 6 5 4 4 5 9 6 7 7 9 11 11 8 7 7 4 11 8 6 5 5 5 6 9 5 8 8 11 10 9 8 7 7 9 10 9 8 9 10 9 9 9 9 5 4 12 16 14 13 13 7 5 5 4 3 3 3 3 3 4 11 11 11 12 12 12 11 11 11 11 11 11 11 10 10
9 9 9 10 7 7 7 7 7 7 6 5 5 5 6 5 4 5 5 8 7 6 4 5 3 4 4 4 4 4 4 4 5 6 6 10 8 11 10 10 8 7 6 8 8 9 8 8 9 8 9 10 6 4 5 6 8 14 12 7 5 5 5 4 4 4 3 2 2 10 10 11 12 11 11 11 12 12 11 11 11 10 11 11 10
13 12 10 7 5 5 5 5 8 8 7 5 4 5 4 5 5 4 5 5 4 4 4 4 3 4 4 4 4 4 4 4 10 13 11 6 6 10 11 10 9 7 6 4 7 8 8 8 8 7 6 4 5 5 6 5 6 5 6 5 5 5 5 4 4 4 3 3 3 10 10 10 10 10 11 12 12 11 10 11 11 10 10 10 10
8 4 3 4 3 4 5 5 5 6 6 5 5 5 5 5 5 5 5 5 5 4 4 4 4 4 4 3 4 3 4 4 4 5 4 4 3 4 5 4 3 3 4 2 3 4 4 4 3 4 5 5 5 6 6 6 5 5 5 5 5 4 4 3 4 4 3 3 4 10 10 10 8 10 11 10 10 11 10 10 9 10 10 10 10
0 3 3 4 5 5 5 5 6 5 5 5 5 6 7 5 5 5 5 4 6 5 4 4 4 5 4 3 3 4 3 3 3 4 4 3 3 3 4 4 4 4 3 2 2 3 3 3 3 3 6 5 5 5 5 7 6 5 5 5 5 4 4 3 3 3 2 4 6 11 9 9 9 10 10 9 9 11 11 11 10 10 9 9 9
3 3 4 5 6 6 6 5 6 6 5 5 5 5 4 4 4 5 5 5 5 5 5 4 4 3 5 4 5 4 4 4 4 4 4 3 4 3 4 4 4 4 3 3 0 1 2 3 2 1 5 6 5 5 4 4 6 7 5 5 4 4 4 3 3 3 2 3 5 11 10 9 8 8 9 9 9 10 10 9 9 9 9 9 10
5 4 5 5 6 6 5 5 5 6 5 6 6 5 5 5 6 6 5 6 6 5 4 5 5 4 5 4 4 4 4 4 4 4 4 3 3 2 3 4 4 4 3 4 2 0 1 2 1 1 4 5 6 4 4 4 5 6 7 5 4 5 4 3 3 3 3 3 3 8 9 9 7 6 8 8 8 8 9 10 9 8 8 8 9
5 4 5 7 6 5 5 5 5 5 5 5 5 5 5 5 6 5 5 7 5 5 5 6 6 4 5 5 4 5 4 4 4 4 3 3 3 3 3 3 3 3 3 3 3 2 1 1 1 2 3 5 6 5 4 4 4 4 7 6 5 5 4 3 3 3 3 2 3 7 10 9 6 6 8 8 8 8 8 8 8 8 9 8 8
5 5 5 6 6 6 6 5 4 5 5 5 5 5 5 6 6 6 5 7 5 6 7 5 5 5 5 5 5 5 5 5 5 4 5 4 3 2 2 2 4 2 3 4 3 4 4 2 2 1 3 4 5 4 4 4 4 3 4 6 6 5 4 3 3 3 2 2 2 4 9 7 7 6 6 7 7 7 7 8 8 8 8 9 8
5 6 6 6 7 7 6 5 4 5 5 5 5 5 5 6 6 5 5 6 5 6 6 6 5 5 5 5 5 5 5 5 5 5 4 4 3 4 3 2 2 3 3 4 3 3 3 3 3 3 4 5 5 4 4 5 4 3 3 5 5 5 4 3 3 3 3 3 3 3 4 7 6 5 4 4 5 6 6 6 7 8 8 8 8
7 8 6 7 8 8 8 6 5 5 6 6 6 6 6 6 6 6 5 5 6 5 6 6 6 5 5 6 5 5 5 4 5 4 5 4 4 4 3 3 4 3 4 3 3 2 3 2 2 2 4 5 5 4 3 5 4 3 3 4 4 5 4 4 3 3 3 3 3 3 2 2 5 7 8 5 4 5 6 7 7 8 7 7 7
7 7 8 8 9 9 8 7 7 6 7 7 6 6 5 6 6 6 5 6 5 5 6 5 5 5 5 5 5 5 5 6 4 5 4 5 4 4 4 4 4 4 4 3 2 3 3 3 2 3 6 5 4 4 4 4 5 3 3 4 4 4 4 4 3 3 3 3 3 3 2 2 3 7 7 5 3 5 5 6 7 8 8 7 8
7 6 8 9 8 7 6 7 7 8 7 6 6 6 5 5 5 6 6 7 6 6 6 5 5 5 5 5 5 5 5 5 6 4 4 4 4 4 5 5 4 4 4 3 3 3 4 4 3 5 6 5 5 4 5 6 4 4 3 3 4 3 4 4 3 3 3 3 3 3 3 3 3 3 2 4 1 3 4 5 7 7 7 7 8
3 6 10 10 9 9 8 7 8 7 7 7 6 6 5 6 6 6 6 7 6 7 6 6 6 6 5 5 5 5 5 5 5 6 5 4 5 5 5 5 4 3 4 3 4 4 4 5 5 6 5 4 3 3 4 5 7 5 4 4 4 3 3 3 3 3 3 3 4 3 3 3 3 4 3 2 4 6 4 5 6 6 6 7 7
3 4 6 8 9 9 10 9 9 9 7 7 6 7 8 7 6 7 7 7 7 7 6 6 6 6 6 6 6 6 5 5 5 5 5 5 5 5 5 4 3 3 3 3 4 5 4 5 3 7 7 4 4 4 4 5 5 6 5 4 4 3 3 3 3 3 3 3 3 3 3 3 3 3 4 4 3 4 7 6 5 4 5 6 6
5 5 7 8 8 10 10 11 12 11 8 8 9 9 8 8 8 8 8 7 7 6 6 6 6 7 6 6 6 6 6 6 6 5 6 5 4 3 4 4 4 5 4 4 4 5 6 5 3 2 7 6 5 5 5 4 6 5 5 5 4 4 3 2 2 3 3 3 3 3 3 3 3 5 3 4 3 3 5 7 6 5 3 1 1
4 4 5 8 9 10 10 10 9 9 8 10 10 8 6 6 6 6 6 7 7 6 6 6 6 7 7 7 8 8 7 7 6 6 5 5 3 4 4 5 5 5 5 5 5 5 5 6 5 2 4 7 5 6 6 6 6 6 4 5 5 3 3 2 1 2 3 3 3 3 3 3 3 3 3 3 3 3 3 4 6 5 4 1 1
4 4 4 4 6 8 7 9 9 8 8 8 7 5 5 5 4 5 6 6 5 2 2 2 3 5 6 8 8 8 8 7 7 6 6 5 4 3 4 5 5 5 5 5 5 5 5 4 7 4 3 3 6 5 6 6 6 6 5 6 5 5 3 2 2 2 2 2 2 3 3 2 3 3 3 3 2 3 2 2 2 2 1 4 1
5 6 6 6 7 7 7 7 9 9 7 6 6 6 5 6 5 4 5 5 4 5 5 6 4 3 4 7 8 7 7 7 7 6 6 6 5 5 4 4 5 5 6 6 5 6 7 6 5 7 6 6 5 5 6 7 7 7 6 6 6 4 4 2 2 2 2 1 2 2 3 3 3 3 3 3 3 2 2 2 2 1 1 1 2
6 8 8 8 8 9 9 10 10 9 8 7 7 8 7 6 5 7 7 4 5 3 6 6 7 5 3 6 5 6 6 6 6 6 7 6 6 4 4 4 5 5 6 6 6 6 6 7 6 4 8 7 4 4 5 6 8 6 5 6 5 3 4 4 3 3 2 2 2 1 3 4 3 3 2 2 2 2 2 2 1 1 2 2 2
8 9 10 9 9 9 10 11 8 9 8 7 7 7 6 6 6 6 4 4 2 6 7 6 7 7 6 4 5 3 4 6 6 6 6 6 6 5 5 6 5 5 4 4 4 5 6 6 7 5 2 6 5 6 7 6 3 4 6 4 4 3 4 4 4 3 2 2 2 1 2 2 3 2 2 2 2 3 2 1 2 3 2 2 1
8 9 9 10 10 9 9 10 9 8 5 6 6 6 3 4 5 4 7 3 3 4 2 1 6 7 7 6 7 5 5 5 6 6 6 6 6 6 6 5 5 5 6 5 5 6 6 8 8 8 6 1 3 4 6 1 6 4 5 5 3 1 0 2 2 2 2 2 3 2 2 3 3 2 1 2 3 2 2 2 2 2 2 2 2
7 9 10 11 10 10 11 11 10 7 6 6 5 4 6 5 4 6 4 3 1 2 2 4 3 3 5 7 8 7 7 4 3 4 5 5 6 6 5 5 5 4 6 7 6 7 6 6 6 6 8 7 4 4 3 1 6 9 4 1 2 0 2 2 2 1 1 3 3 3 2 2 2 2 1 2 2 2 2 1 2 2 2 2 3
6 8 9 11 9 13 13 12 9 8 7 8 7 7 8 7 6 6 6 5 1 3 2 4 6 7 7 8 8 7 6 6 9 7 6 7 6 5 6 5 6 6 5 6 7 8 8 8 8 8 8 9 7 4 5 2 5 1 8 5 3 2 2 1 3 2 1 2 2 3 3 2 2 1 1 1 1 2 2 2 2 3 3 3 3
8 9 9 11 11 11 10 10 8 8 9 10 9 9 9 9 8 8 8 7 6 7 9 9 8 9 8 6 7 7 8 7 8 8 7 6 7 7 6 6 5 6 6 7 7 6 7 7 8 8 8 6 10 7 5 2 5 3 0 1 4 5 6 3 2 3 0 1 3 3 4 4 4 2 2 2 3 2 2 2 3 3 3 4 3
9 8 8 8 7 6 6 5 3 4 7 8 9 8 8 7 10 10 10 10 10 9 7 5 7 5 6 8 8 8 9 9 8 8 7 7 7 6 6 6 6 6 6 6 7 8 8 8 7 6 7 7 5 9 8 6 2 4 2 0 1 2 7 8 4 3 3 1 2 2 2 3 3 3 3 3 3 3 3 3 4 3 3 3 3
4 2 7 9 8 8 9 7 5 3 3 3 6 7 8 7 7 7 8 8 9 9 9 7 6 5 7 8 8 8 10 10 9 7 6 6 6 6 5 5 6 6 6 7 8 7 6 5 7 7 6 7 8 8 7 6 8 5 2 1 1 3 4 2 4 5 4 6 3 2 2 2 2 2 2 3 3 4 4 4 4 4 3 3 3
11 12 12 9 7 5 2 2 1 4 4 4 6 7 7 8 8 7 7 8 6 3 4 5 6 6 7 6 7 8 8 7 7 7 4 2 4 7 6 6 6 6 6 6 6 7 8 7 6 5 6 6 6 5 7 7 6 6 4 2 3 3 2 1 4 2 3 4 2 3 3 1 1 0 0 1 3 4 4 5 4 4 4 3 2
7 7 4 0 4 6 7 4 5 4 5 5 7 8 7 6 7 8 9 7 4 3 4 6 6 7 7 7 6 6 6 4 3 3 4 4 5 4 6 7 7 7 6 6 6 6 5 7 8 8 7 7 5 5 7 6 7 5 4 5 3 3 3 2 0 2 3 1 4 7 4 5 5 2 1 2 3 4 4 5 4 4 4 4 3
3 6 9 8 7 6 7 8 7 6 7 7 7 8 7 7 8 9 9 7 5 5 6 6 5 6 7 6 5 4 4 4 5 5 4 5 5 5 5 6 6 6 6 6 7 7 6 7 7 7 7 7 6 5 4 4 6 5 5 6 7 9 8 6 7 5 4 3 4 4 4 4 2 3 3 1 3 3 4 4 5 4 4 4 3
Wind_Direction
157 147 141 140 135 133 128 124 121 120 118 115 111 111 110 113 112 112 111 113 114 114 114 113 114 114 114 115 114 112 109 106 105 106 106 104 104 104 105 103 100 96 98 97 96 97 92 94 96 88 80 83 84 81 88 88 85 81 78 77 85 90 86 81 86 82 79 80 84 83 87 91 91 91 93 88 84 78 74 72 70 71 72 74 76
153 146 137 138 136 132 127 126 124 124 121 118 117 117 117 117 115 113 113 115 115 114 113 113 113 113 114 114 112 110 109 108 109 110 109 108 107 107 105 101 98 100 100 99 92 92 93 94 94 93 96 93 89 92 88 84 85 84 86 87 84 82 85 90 93 93 91 83 82 82 82 85 87 87 83 84 82 81 78 77 76 73 72 76 75
132 138 137 138 137 130 126 127 129 127 124 121 121 120 121 120 118 117 116 115 115 113 113 113 112 112 113 113 113 112 111 110 110 108 107 106 105 105 105 104 102 100 100 100 99 96 96 96 94 83 86 90 90 84 81 82 80 80 84 82 83 88 92 87 90 87 82 89 90 84 75 71 74 80 84 84 83 80 78 77 76 74 71 71 72
136 137 136 137 134 131 127 130 131 130 126 124 123 123 122 122 119 118 116 115 114 113 113 112 113 113 114 115 115 115 113 112 113 112 110 108 107 107 108 107 105 104 103 99 100 102 100 92 85 82 84 84 82 79 82 86 84 84 86 88 90 95 89 87 88 91 87 87 83 80 71 61 84 85 81 80 78 75 74 73 73 73 73 72 71
136 136 136 133 132 131 129 130 131 130 128 127 127 127 124 122 119 117 116 115 115 114 114 114 115 115 116 116 116 116 115 114 114 113 110 110 110 108 105 104 106 104 103 107 106 103 98 94 87 82 79 81 84 85 85 82 77 74 77 80 81 90 93 87 85 78 87 79 72 75 79 99 82 79 79 76 76 75 74 73 72 72 73 73 73
135 133 135 131 130 131 129 131 133 133 131 131 130 128 126 123 120 117 117 118 116 115 117 117 116 117 117 117 117 118 117 116 114 112 112 110 105 105 106 106 102 101 105 106 104 107 100 92 87 84 79 78 78 79 77 75 71 68 70 78 88 86 88 91 90 86 77 73 63 48 45 47 57 67 76 74 72 71 73 75 74 73 73 70 71
130 130 130 130 131 133 133 134 135 136 135 133 131 127 126 124 122 123 122 121 117 119 118 118 117 117 117 117 119 120 119 118 116 114 113 110 109 108 108 108 108 110 108 104 106 105 96 94 90 85 83 79 76 73 67 63 57 52 52 64 88 86 83 86 88 86 82 71 49 41 37 41 47 61 72 77 77 75 73 73 72 72 73 74 75
121 125 128 127 131 138 137 139 138 138 136 133 131 131 130 126 126 128 125 124 121 121 119 119 119 119 119 119 121 122 121 120 119 117 114 109 107 106 106 106 108 109 108 107 105 107 104 101 98 96 88 85 79 70 65 57 52 47 45 54 71 75 80 92 90 86 80 74 66 62 53 43 45 54 70 73 77 77 77 77 76 77 79 78 76
122 125 126 128 138 143 142 140 138 138 137 135 135 136 132 132 131 128 128 126 124 123 123 122 122 120 120 121 123 123 120 120 120 118 114 104 104 103 102 103 102 100 100 102 103 102 101 102 98 94 94 84 76 70 63 59 53 46 41 49 92 106 101 94 86 80 76 76 74 68 68 68 72 78 83 85 85 83 76 70 72 79 78 81 83
122 120 128 136 144 145 142 139 139 139 139 138 140 138 135 135 132 131 129 128 127 128 127 127 124 122 122 125 126 124 123 121 121 119 113 104 106 110 110 108 106 105 105 104 103 103 105 103 98 90 81 75 71 66 63 55 47 45 59 75 103 102 98 93 85 77 78 82 85 87 82 78 75 84 90 90 95 92 90 93 87 83 84 76 78
122 129 136 142 147 143 141 137 138 141 141 143 143 141 138 135 134 131 130 132 134 135 133 131 127 126 126 127 127 125 124 122 122 119 116 111 114 114 113 110 107 106 103 100 99 96 94 91 88 84 81 76 73 69 60 53 47 60 74 76 86 91 91 88 79 74 76 78 76 71 80 77 74 80 90 90 88 87 85 81 80 77 80 83 78
134 139 144 147 148 141 139 138 141 142 144 146 146 144 141 137 136 136 136 139 141 138 135 131 130 130 130 128 130 127 124 124 123 121 120 118 118 116 109 105 107 106 105 102 98 98 96 96 92 89 84 80 75 66 61 57 58 74 84 85 85 87 88 84 80 77 74 77 81 80 81 80 84 90 90 90 85 87 91 90 83 79 79 75 76
146 146 147 150 140 144 141 141 142 144 147 149 149 147 145 140 141 141 145 145 142 138 134 131 132 133 129 130 132 129 127 126 127 126 124 122 115 107 106 109 110 111 109 106 102 101 101 99 96 91 89 83 75 71 67 63 65 79 91 93 92 93 91 85 76 78 77 75 74 73 79 82 90 93 90 90 91 90 88 79 79 76 75 76 71
152 147 145 138 140 143 140 140 143 149 151 152 151 151 148 146 147 149 150 146 140 136 133 134 135 134 130 130 132 131 129 130 129 128 125 117 111 112 113 114 114 112 110 106 105 103 103 100 97 96 89 80 76 76 72 73 77 90 98 99 100 99 96 90 85 80 76 67 72 75 68 74 83 85 89 92 91 91 89 83 81 77 73 73 73
139 133 128 126 136 139 146 146 149 152 151 151 152 153 151 148 149 152 150 144 138 135 136 138 137 135 135 133 133 132 133 134 132 128 121 119 117 114 117 117 116 113 111 109 106 104 102 101 103 98 90 87 85 73 74 89 101 108 109 107 104 102 99 92 87 78 77 74 65 68 67 75 87 91 95 95 94 93 89 84 79 77 75 73 73
126 125 122 130 139 149 149 156 154 152 149 152 155 153 150 151 155 155 147 139 138 141 140 138 138 137 136 135 134 136 138 136 131 124 122 121 117 118 119 120 119 116 114 112 108 105 102 102 100 93 90 90 78 68 70 97 118 118 114 107 100 99 98 93 84 78 74 73 71 65 69 74 89 92 87 91 88 85 84 81 78 77 76 74 73
132 132 136 138 144 150 156 155 157 153 152 155 155 152 153 158 160 153 143 141 145 145 141 139 137 136 136 138 137 137 132 132 130 125 126 121 118 120 121 122 122 118 116 114 111 106 104 102 96 94 93 82 73 67 74 103 118 118 112 106 105 103 101 92 83 78 77 82 83 79 77 85 95 92 88 92 91 87 81 83 82 75 74 75 72
131 135 139 144 148 152 152 154 159 156 161 160 159 158 162 163 159 152 148 147 147 144 140 138 138 139 138 140 138 128 125 129 128 128 123 121 122 122 123 125 123 120 119 118 114 108 105 100 96 94 87 79 76 71 81 100 108 110 109 108 107 106 103 94 88 83 83 83 79 80 82 102 104 105 103 98 94 93 89 86 85 84 81 80 80
142 146 148 151 154 154 162 167 167 168 167 162 164 169 168 163 157 150 149 149 145 141 141 142 143 142 140 138 137 131 128 129 127 127 124 126 126 125 127 128 127 124 120 119 115 110 103 98 95 89 85 81 78 78 82 89 102 108 110 110 108 107 101 86 83 82 82 81 85 98 120 116 106 101 104 106 101 97 95 94 90 86 86 83 79
154 157 160 168 167 170 176 178 175 169 164 165 170 169 167 156 150 150 151 147 141 142 143 145 145 145 145 145 145 142 137 133 133 132 132 129 127 130 131 130 128 124 121 117 114 110 104 97 91 87 86 82 80 82 100 109 108 110 112 112 109 98 83 84 88 85 92 99 92 110 118 110 110 110 103 100 102 99 93 90 92 89 85 87 88
159 177 179 178 179 177 172 154 154 156 156 155 150 150 160 154 150 152 152 145 142 143 142 144 147 152 150 144 133 126 130 134 133 137 136 131 133 134 132 131 126 124 118 114 112 108 104 95 88 87 84 82 77 85 113 124 115 112 111 107 98 86 87 84 87 91 86 89 98 115 119 114 112 112 112 109 102 99 101 102 100 98 95 86 88
174 182 195 188 180 165 153 138 137 144 139 131 115 116 145 147 142 149 148 145 145 143 140 145 145 146 151 132 124 132 127 127 136 139 128 137 134 136 132 128 126 119 115 112 109 106 99 93 90 87 85 76 70 63 91 125 120 113 108 103 96 104 103 97 91 93 87 93 105 110 109 113 112 108 108 109 110 109 107 105 101 98 97 98 93
185 189 194 193 176 156 152 137 137 130 124 115 122 131 139 124 133 131 139 146 146 128 122 138 97 121 111 115 117 118 126 131 131 133 137 140 140 138 131 129 123 120 114 108 109 105 99 92 90 90 80 74 67 68 90 107 114 114 109 104 113 112 105 106 107 109 116 124 142 130 130 121 116 115 116 116 111 111 109 104 102 105 103 101 98
188 189 185 177 158 141 127 107 129 127 128 120 121 130 129 131 129 123 117 129 122 109 110 112 103 104 106 102 114 123 121 124 146 143 144 140 146 141 134 130 126 122 111 89 103 109 100 93 89 82 75 72 74 83 95 102 102 104 111 117 119 122 119 121 123 122 127 121 124 125 121 118 121 125 126 122 119 120 118 114 110 106 105 104 108
193 155 131 150 104 83 91 98 111 130 130 120 126 125 122 127 124 121 127 134 128 112 108 99 113 102 97 101 117 121 125 131 136 128 118 138 133 130 120 104 94 88 86 60 64 75 75 78 65 65 75 74 79 93 109 112 114 116 119 123 120 118 113 114 117 112 110 117 112 115 119 120 124 119 117 119 122 126 121 112 112 113 114 110 103
71 131 113 114 99 87 86 86 94 102 117 120 124 138 135 133 132 122 119 119 124 126 117 117 119 115 109 118 109 116 117 118 114 124 130 134 134 129 124 122 112 115 101 72 60 78 81 73 82 83 77 80 89 101 117 130 128 120 117 115 113 105 110 111 98 91 92 101 118 127 130 133 131 124 125 125 125 122 120 121 123 117 109 107 105
149 122 90 88 89 94 100 106 120 129 118 107 109 105 113 116 114 119 114 117 119 123 127 134 131 137 129 139 140 140 131 130 132 133 138 134 136 134 133 130 132 129 133 119 110 65 76 84 73 67 78 89 91 98 110 126 128 125 119 117 113 115 112 111 109 103 95 115 136 133 124 117 122 133 128 128 128 123 124 123 121 118 115 112 113
116 106 92 95 96 96 103 109 119 127 126 125 122 117 120 128 126 137 125 132 130 126 137 142 138 148 145 151 144 144 146 145 144 146 148 134 145 144 133 136 138 144 145 142 149 296 77 75 80 39 72 98 101 106 111 119 125 126 125 125 122 119 115 119 120 120 120 120 120 125 124 131 135 120 122 125 126 132 133 128 123 122 125 116 107
148 125 108 99 104 106 107 116 126 123 122 127 124 124 127 124 133 133 135 142 134 139 145 145 151 161 152 155 153 151 147 147 152 155 140 146 140 146 159 155 150 160 150 155 155 167 141 113 71 59 72 89 105 118 123 113 117 130 133 134 135 129 124 119 124 119 111 114 127 135 136 135 125 126 124 131 143 137 129 124 130 129 114 110 111
167 144 117 119 123 119 120 121 127 122 124 123 130 135 137 135 142 142 144 146 143 145 147 154 157 158 159 163 166 159 160 156 155 153 156 156 155 155 163 170 172 177 174 175 176 158 165 121 92 102 96 97 110 138 134 124 115 122 131 135 138 135 129 126 111 102 93 88 103 127 130 107 113 127 144 146 145 140 130 128 126 120 120 125 120
153 166 138 135 135 133 132 128 128 136 131 134 145 141 144 146 145 146 145 145 147 148 153 155 161 165 164 164 167 165 154 153 156 159 158 158 161 165 188 185 194 207 199 197 163 170 150 150 161 167 127 113 122 138 134 123 116 107 116 129 133 126 126 116 109 103 94 89 79 88 120 122 129 132 121 107 118 122 127 130 125 121 126 128 129
180 185 149 137 138 143 138 136 135 140 146 149 147 149 157 159 149 151 146 143 150 153 155 161 165 167 164 166 167 165 154 154 156 162 163 167 174 180 182 190 216 218 210 203 177 139 137 134 138 133 104 116 123 125 117 116 109 106 122 127 125 124 122 123 116 104 105 94 86 73 74 84 122 106 95 88 107 143 147 143 141 139 140 138 127
195 163 146 145 148 147 144 145 146 156 160 163 156 152 153 156 154 154 145 148 154 155 160 168 165 167 166 167 167 164 160 159 166 172 172 176 179 183 188 205 209 207 209 209 151 122 122 115 94 97 99 102 117 117 94 86 101 106 115 119 112 110 115 113 108 107 104 101 91 80 65 76 95 108 113 135 153 151 142 140 140 140 141 141 135
168 147 144 155 151 149 145 146 157 165 170 161 149 147 153 152 151 149 152 155 160 163 169 167 168 171 170 168 166 166 165 165 164 176 174 177 188 195 198 209 208 205 204 187 145 148 127 122 130 109 118 131 142 142 117 106 95 100 100 103 97 103 109 104 108 113 114 105 106 101 101 95 96 89 99 136 120 148 137 142 136 138 139 137 142
124 150 166 160 155 154 154 157 168 170 168 162 152 148 157 160 159 161 163 163 165 170 174 170 172 173 165 167 168 170 171 171 170 173 176 178 191 197 197 208 200 195 193 175 150 148 140 139 140 113 101 107 120 103 99 101 117 112 94 100 108 106 94 107 112 120 114 119 110 105 107 101 88 85 82 51 89 99 101 120 133 137 136 145 151
180 174 156 156 158 157 161 160 170 175 171 158 155 160 169 168 163 167 165 167 169 173 173 175 172 168 169 167 172 173 173 174 171 172 177 185 199 192 202 182 175 175 179 150 140 145 143 137 151 132 120 119 122 91 82 99 99 105 99 96 96 106 103 106 120 119 126 122 112 115 113 108 100 111 93 79 75 88 92 85 67 76 137 156 161
179 167 171 163 159 159 165 166 177 179 164 161 169 175 169 168 171 168 168 167 172 174 175 170 169 172 171 170 173 176 178 175 174 173 174 191 209 199 190 168 158 160 156 148 152 148 141 136 132 155 139 140 131 114 97 100 104 100 101 93 83 104 94 109 120 133 115 113 125 136 132 130 143 106 86 81 71 62 75 82 84 93 80 52 158
180 173 178 169 166 167 172 176 177 176 169 176 181 172 164 159 165 162 163 170 173 174 175 173 176 175 171 173 176 179 178 178 176 170 176 189 190 190 179 155 155 152 146 150 158 148 143 140 131 99 126 130 136 134 123 118 110 109 93 83 95 98 109 114 129 127 131 144 139 148 162 146 104 109 100 89 74 62 56 59 73 79 121 167 354
166 157 163 170 166 172 171 178 177 174 176 180 171 147 147 153 149 153 167 175 163 131 136 177 201 182 181 178 178 181 180 178 175 171 174 180 184 192 175 155 151 157 146 142 139 143 139 138 139 118 71 68 129 128 129 123 113 105 91 84 87 88 89 104 67 108 120 143 147 136 108 102 112 112 110 105 91 84 82 61 59 49 68 148 151
152 150 161 168 172 171 171 173 182 181 174 161 149 152 151 157 150 159 177 176 148 168 185 185 169 210 205 182 182 183 179 178 176 172 175 175 184 190 172 150 153 154 148 145 151 155 148 132 135 131 109 93 84 121 127 122 109 103 97 86 79 80 84 92 99 84 84 93 60 91 114 99 108 112 118 124 116 109 89 87 73 37 37 71 211
153 159 165 171 173 174 174 183 188 183 174 162 164 166 163 148 160 181 185 167 173 187 190 174 171 163 197 188 190 189 183 177 176 170 179 181 184 173 155 159 155 164 160 166 162 161 151 140 134 131 132 123 117 127 128 123 116 99 95 103 98 110 126 122 126 129 129 109 109 221 100 92 109 120 136 129 120 99 95 94 91 61 43 30 21
168 164 171 174 176 177 183 189 189 193 180 166 168 170 173 176 172 184 156 147 135 178 192 187 184 163 182 188 187 223 207 184 178 177 177 180 176 171 175 172 163 165 156 148 153 148 136 134 135 111 109 139 140 156 154 134 73 131 136 120 83 73 102 125 137 140 125 123 84 93 90 117 95 81 78 99 97 106 106 100 73 66 45 53 44
164 168 174 172 174 178 185 196 198 187 159 159 160 164 132 130 147 174 172 130 156 191 134 182 176 167 174 189 186 191 215 199 181 177 177 183 176 170 185 179 163 150 140 149 152 149 154 152 154 145 136 68 100 158 175 109 129 113 84 90 105 67 94 85 78 81 113 128 134 123 99 104 115 63 53 86 97 93 114 100 77 62 50 49 33
167 172 175 175 176 180 190 199 197 173 142 168 155 119 124 118 112 144 138 87 99 192 112 136 129 104 188 182 184 186 190 195 167 189 188 181 172 180 179 174 132 180 154 154 161 155 155 156 149 151 144 140 157 179 193 182 141 133 122 144 124 64 156 202 142 114 94 122 130 115 110 104 76 96 55 94 119 111 75 73 80 65 61 56 39
185 184 178 178 184 187 195 195 187 168 156 168 152 139 135 128 125 114 113 91 116 159 169 187 177 186 183 190 194 171 164 197 196 195 187 179 176 178 179 179 156 170 156 155 167 171 171 166 161 156 169 157 161 163 203 166 186 162 134 129 89 193 225 156 139 78 105 133 122 130 129 121 143 114 108 128 120 112 121 87 73 66 60 53 48
195 194 186 181 190 194 193 193 180 167 172 172 161 157 164 160 154 148 158 170 182 189 198 195 188 190 187 175 172 161 172 211 203 193 187 177 180 181 180 175 172 160 165 171 169 165 167 168 175 169 171 184 160 163 179 226 206 198 129 100 167 173 168 178 154 159 177 148 152 155 153 165 161 149 149 149 127 131 126 117 92 80 66 61 57
200 187 187 194 191 190 203 205 197 190 180 174 171 166 164 171 174 177 174 179 185 202 192 182 189 184 167 179 172 162 177 195 209 192 188 183 179 178 179 179 171 169 169 165 164 175 177 180 176 175 178 163 154 162 177 185 187 258 252 291 195 147 150 143 189 107 163 151 172 138 144 136 140 155 167 156 135 128 118 120 111 94 78 75 75
253 148 42 23 3 6 19 4 351 323 282 222 195 185 171 177 181 184 186 191 195 189 181 184 174 166 177 177 170 176 181 194 197 193 191 184 175 175 173 172 170 174 170 177 173 175 174 182 185 184 167 170 169 165 171 167 176 210 182 177 74 100 124 65 144 159 135 155 153 91 83 106 88 168 168 151 143 142 128 123 118 107 96 82 86
11 44 40 23 21 32 56 241 248 250 240 248 231 216 196 182 183 183 197 212 205 191 176 155 164 170 179 176 174 177 186 190 192 188 180 201 186 177 173 170 179 178 180 176 173 166 170 173 181 174 177 176 179 166 157 179 183 182 129 51 86 105 64 42 132 100 141 147 100 150 147 94 48 277 129 126 140 136 141 139 130 127 127 114 102
24 73 79 327 223 195 200 182 204 220 231 222 238 236 221 193 186 191 201 200 169 161 168 169 172 175 181 175 173 174 183 180 158 125 156 215 245 206 179 178 184 175 176 176 163 164 168 172 179 182 182 178 181 165 176 179 185 174 167 149 122 112 74 72 124 120 81 64 161 178 171 162 170 209 115 136 139 138 136 136 133 135 132 132 127
39 125 156 185 231 229 206 196 196 201 221 226 231 241 234 210 202 197 198 191 177 166 170 182 174 178 187 173 159 127 123 151 125 132 178 227 241 249 191 186 179 174 171 167 171 171 173 172 177 180 179 178 179 178 180 181 177 168 166 164 162 170 174 173 182 183 155 145 120 142 140 164 151 165 242 165 141 148 142 142 148 147 147 145 142